Watertown, WI

3:50 AM CST on November 18, 2019 (GMT -0600)
Watertown Municipal

Weather History for KRYV - October, 2019

Change the Weather History Date:

Monday, October 21, 2019

  Actual Average Record
Temperature  
Mean Temperature 54 °F -  
Max Temperature 64 °F 58 °F 86 °F (1947)
Min Temperature 45 °F 39 °F 22 °F (1952)
Degree Days  
Heating Degree Days 11    
Growing Degree Days 4 (Base 50)    
Moisture  
Dew Point 48 °F    
Average Humidity 85    
Maximum Humidity 100    
Minimum Humidity 53    
Precipitation  
Precipitation 0.31 in - - ()
Sea Level Pressure  
Sea Level Pressure 29.51 in    
Wind  
Wind Speed 12 mph ()    
Max Wind Speed 26 mph    
Max Gust Speed 41 mph    
Visibility 9.2 miles    
Events Rain    
Averages and records for this station are not official NWS values.
T = Trace of Precipitation, MM = Missing Value Source: Averaged Metar Reports

Daily Weather History Graph

Daily Weather History Graph

Search for Another Location

Airport or City:

Astronomy

Oct. 21, 2019 Rise Set
Actual Time 7:15 AM CDT 6:02 PM CDT
Civil Twilight 6:46 AM CDT 6:31 PM CDT
Nautical Twilight 6:13 AM CDT 7:04 PM CDT
Astronomical Twilight 5:40 AM CDT 7:37 PM CDT
Moon No Moon Rise 2:39 PM CDT (10/21)
Length of Visible Light 11h 44m
Length of Day
10h 47m
Waning Gibbous, 48% of the Moon is Illuminated
Oct 21
Waning Gibbous
Oct 27
New
Nov 4
First Quarter
Nov 12
Full
Nov 19
Last Quarter

Hourly Weather History & Observations

Time (CDT) Temp. Windchill Dew Point Humidity Pressure Visibility Wind Dir Wind Speed Gust Speed Precip Events Conditions
12:15 AM 45.0 °F 42.6 °F 45.0 °F 100% 29.88 in 10.0 mi East 4.6 mph - N/A   Clear
12:35 AM 45.0 °F 41.8 °F 45.0 °F 100% 29.87 in 10.0 mi East 5.8 mph - N/A   Clear
12:55 AM 45.5 °F 40.8 °F 45.5 °F 100% 29.86 in 10.0 mi East 9.2 mph - N/A   Clear
1:15 AM 45.7 °F 41.5 °F 45.7 °F 100% 29.84 in 10.0 mi East 8.1 mph - N/A   Clear
1:35 AM 46.0 °F 41.4 °F 46.0 °F 100% 29.80 in 10.0 mi East 9.2 mph - N/A   Clear
1:55 AM 46.4 °F 42.4 °F 46.4 °F 100% 29.83 in 10.0 mi East 8.1 mph - N/A   Mostly Cloudy
2:15 AM 46.4 °F 42.4 °F 46.4 °F 100% 29.82 in 10.0 mi East 8.1 mph - N/A   Overcast
2:35 AM 46.6 °F - 46.6 °F 100% 29.82 in 10.0 mi East 8.1 mph - N/A   Mostly Cloudy
2:55 AM 46.4 °F 42.9 °F 46.4 °F 100% 29.80 in 10.0 mi East 6.9 mph - N/A   Mostly Cloudy
3:15 AM 46.4 °F 42.4 °F 46.4 °F 100% 29.80 in 10.0 mi East 8.1 mph - N/A   Overcast
3:35 AM 46.8 °F - 46.8 °F 100% 29.78 in 10.0 mi East 10.4 mph - N/A   Overcast
3:55 AM 46.6 °F - 46.6 °F 100% 29.77 in 10.0 mi East 9.2 mph - N/A   Mostly Cloudy
4:15 AM 46.9 °F - 46.9 °F 100% 29.75 in 10.0 mi East 11.5 mph 16.1 mph N/A   Mostly Cloudy
4:35 AM 47.3 °F - 47.3 °F 100% 29.73 in 10.0 mi East 10.4 mph 18.4 mph N/A   Overcast
4:55 AM 47.7 °F - 47.7 °F 100% 29.71 in 10.0 mi East 11.5 mph - N/A   Mostly Cloudy
5:15 AM 48.6 °F - 48.6 °F 100% 29.70 in 10.0 mi East 10.4 mph - N/A   Scattered Clouds
5:35 AM 49.1 °F - 49.1 °F 100% 29.69 in 10.0 mi East 12.7 mph 18.4 mph N/A   Mostly Cloudy
5:55 AM 49.5 °F - 49.5 °F 100% 29.67 in 10.0 mi East 11.5 mph - N/A   Overcast
6:15 AM 50.4 °F - 50.4 °F 100% 29.65 in 10.0 mi East 13.8 mph - N/A   Mostly Cloudy
6:35 AM 50.9 °F - 50.9 °F 100% 29.64 in 10.0 mi ESE 13.8 mph 17.3 mph N/A   Mostly Cloudy
6:55 AM 51.4 °F - 51.4 °F 100% 29.62 in 10.0 mi ESE 12.7 mph 19.6 mph N/A   Overcast
7:15 AM 51.6 °F - 51.6 °F 100% 29.61 in 10.0 mi East 11.5 mph - N/A   Overcast
7:35 AM 51.8 °F - 51.8 °F 100% 29.59 in 10.0 mi East 12.7 mph - N/A   Overcast
7:55 AM 53.1 °F - 52.3 °F 97% 29.58 in 10.0 mi East 13.8 mph 20.7 mph N/A   Overcast
8:15 AM 53.2 °F - 52.5 °F 97% 29.56 in 10.0 mi East 13.8 mph - N/A   Overcast
8:35 AM 53.6 °F - 52.7 °F 97% 29.55 in 10.0 mi East 12.7 mph 18.4 mph N/A   Overcast
8:55 AM 54.5 °F - 52.7 °F 94% 29.52 in 10.0 mi East 12.7 mph - N/A   Overcast
9:15 AM 54.7 °F - 53.1 °F 94% 29.46 in 10.0 mi East 21.9 mph 28.8 mph N/A   Overcast
9:35 AM 55.4 °F - 54.3 °F 96% 29.44 in 10.0 mi ESE 16.1 mph 29.9 mph N/A Rain Light Rain
9:55 AM 56.1 °F - 55.0 °F 96% 29.44 in 10.0 mi ESE 18.4 mph 27.6 mph N/A   Overcast
10:15 AM 56.8 °F - 55.4 °F 95% 29.42 in 10.0 mi ESE 17.3 mph 38.0 mph N/A Rain Light Rain
10:35 AM 55.8 °F - 55.8 °F 100% 29.39 in 4.0 mi ESE 20.7 mph 31.1 mph 0.02 in Rain Light Rain
10:55 AM 55.6 °F - 55.6 °F 100% 29.37 in 3.0 mi ESE 20.7 mph 31.1 mph 0.06 in Rain Heavy Rain
11:15 AM 55.8 °F - 55.8 °F 100% 29.35 in 5.0 mi SE 23.0 mph 34.5 mph 0.01 in Rain Light Rain
11:35 AM 55.9 °F - 55.9 °F 100% 29.34 in 4.0 mi SE 23.0 mph 36.8 mph 0.02 in Rain Light Rain
11:55 AM 56.3 °F - 56.3 °F 100% 29.34 in 2.5 mi SE 21.9 mph 29.9 mph 0.03 in Rain Rain
12:15 PM 56.3 °F - 56.3 °F 100% 29.34 in 3.0 mi SSE 17.3 mph 25.3 mph 0.01 in Rain Rain
12:35 PM 56.5 °F - 56.5 °F 100% 29.33 in 3.0 mi SSE 12.7 mph 24.2 mph 0.04 in Rain Light Rain
12:55 PM 56.7 °F - 56.7 °F 100% 29.32 in 7.0 mi SSE 13.8 mph 25.3 mph 0.09 in Rain Light Rain
1:15 PM 57.0 °F - 57.0 °F 100% 29.32 in 3.0 mi South 10.4 mph 21.9 mph 0.07 in Rain Rain
1:35 PM 58.3 °F - 58.3 °F 100% 29.32 in 7.0 mi South 11.5 mph 21.9 mph 0.13 in Rain Rain
1:55 PM 60.3 °F - 60.3 °F 100% 29.32 in 10.0 mi South 15.0 mph 23.0 mph 0.13 in   Overcast
2:15 PM 61.0 °F - 61.0 °F 100% 29.31 in 10.0 mi South 12.7 mph 21.9 mph N/A   Overcast
2:35 PM 61.9 °F - 60.3 °F 94% 29.31 in 10.0 mi SW 19.6 mph 26.5 mph N/A   Overcast
2:55 PM 63.0 °F - 60.1 °F 90% 29.32 in 10.0 mi South 13.8 mph 18.4 mph N/A   Mostly Cloudy
3:15 PM 61.9 °F - 57.4 °F 85% 29.31 in 10.0 mi South 8.1 mph 17.3 mph N/A   Overcast
3:35 PM 63.9 °F - 49.6 °F 60% 29.32 in 10.0 mi South 17.3 mph 26.5 mph N/A   Overcast
3:55 PM 63.9 °F - 48.6 °F 57% 29.32 in 10.0 mi South 19.6 mph 28.8 mph N/A   Scattered Clouds
4:15 PM 63.5 °F - 47.3 °F 56% 29.33 in 10.0 mi SSW 24.2 mph 31.1 mph N/A   Scattered Clouds
4:35 PM 62.2 °F - 45.9 °F 55% 29.33 in 10.0 mi SSW 17.3 mph 28.8 mph N/A   Scattered Clouds
4:55 PM 60.8 °F - 43.5 °F 53% 29.35 in 10.0 mi SSW 21.9 mph 35.7 mph N/A   Scattered Clouds
5:15 PM 59.2 °F - 43.7 °F 57% 29.36 in 10.0 mi SSW 20.7 mph 31.1 mph N/A   Clear
5:35 PM 58.3 °F - 42.8 °F 56% 29.38 in 10.0 mi SSW 21.9 mph 27.6 mph N/A   Scattered Clouds
5:55 PM 56.7 °F - 41.4 °F 57% 29.39 in 10.0 mi SSW 23.0 mph 29.9 mph N/A   Scattered Clouds
6:15 PM 55.8 °F - 41.0 °F 58% 29.39 in 10.0 mi SSW 19.6 mph 24.2 mph N/A   Scattered Clouds
6:35 PM 55.9 °F - 41.4 °F 58% 29.40 in 10.0 mi SSW 18.4 mph 28.8 mph N/A   Mostly Cloudy
6:55 PM 55.8 °F - 41.5 °F 59% 29.41 in 10.0 mi SSW 13.8 mph 27.6 mph N/A   Overcast
7:15 PM 55.4 °F - 41.4 °F 59% 29.42 in 10.0 mi SSW 18.4 mph 25.3 mph N/A   Overcast
7:35 PM 54.5 °F - 41.4 °F 61% 29.43 in 10.0 mi SSW 19.6 mph 28.8 mph N/A   Overcast
7:55 PM 52.3 °F - 37.9 °F 58% 29.44 in 10.0 mi SSW 26.5 mph 41.4 mph N/A   Overcast
8:15 PM 51.4 °F - 37.9 °F 60% 29.44 in 10.0 mi SSW 21.9 mph 33.4 mph N/A   Overcast
8:35 PM 50.9 °F - 38.1 °F 62% 29.44 in 10.0 mi SW 23.0 mph 28.8 mph N/A   Overcast
8:55 PM 50.5 °F - 38.5 °F 63% 29.44 in 10.0 mi SSW 16.1 mph 25.3 mph N/A   Overcast
9:15 PM 50.4 °F - 38.8 °F 65% 29.44 in 10.0 mi SSW 19.6 mph 24.2 mph N/A   Overcast
9:35 PM 50.4 °F - 38.7 °F 64% 29.44 in 10.0 mi SSW 15.0 mph 23.0 mph N/A   Overcast
9:55 PM 50.4 °F - 38.8 °F 65% 29.43 in 10.0 mi SSW 15.0 mph 23.0 mph N/A   Overcast
10:15 PM 50.5 °F - 39.2 °F 65% 29.42 in 10.0 mi South 15.0 mph 23.0 mph N/A   Overcast
10:35 PM 50.0 °F - 39.6 °F 67% 29.41 in 10.0 mi South 18.4 mph 24.2 mph N/A   Overcast
10:55 PM 49.6 °F - 39.9 °F 69% 29.41 in 10.0 mi SSW 15.0 mph 24.2 mph N/A   Overcast
11:15 PM 50.2 °F - 40.1 °F 68% 29.40 in 10.0 mi South 17.3 mph 26.5 mph N/A   Overcast
11:35 PM 50.2 °F - 40.1 °F 68% 29.39 in 10.0 mi South 16.1 mph 23.0 mph N/A   Overcast
11:55 PM 49.5 °F - 40.1 °F 70% 29.38 in 10.0 mi South 18.4 mph 24.2 mph N/A   Mostly Cloudy